sat.trackr.live / text

‹ back to catalog

STARLINK-11136 [DTC]

NORAD 60407 · 2024-141K

PAYLOAD ACTIVE UNKNOWN

§ Identity

Operator
Country
US
Launch date
2024-08-10
Launch site
AFETR
Launch vehicle
Mass (kg)
RCS (m²)

Purposes: comms

External: N2YO · Heavens-Above · Gunter

§ Orbital elements

Epoch: 2026-09-21T22:00:03.000096Z

Period
91.73 min
Inclination
53.1570°
Eccentricity
0.0001332
Mean motion
15.69759884 rev/d
Perigee alt
358.7 km
Apogee alt
360.5 km
Semi-major
6,737.7 km
B*
-1.0691e-3
RAAN
199.0568°
Arg perigee
102.7941°
Mean anomaly
156.9509°
Rev number
598

§ Raw data

STARLINK-11136 [DTC]1 60407U 24141K   26264.91670139 -.00128390  00000+0 -10691-2 0  99982 60407  53.1570 199.0568 0001332 102.7941 156.9509 15.69759884  5980

JSON: /api/v1/satellites/60407 · /tle

For live sub-satellite position, see the globe view (requires WebGL).

§ Visibility from observer

Set your observer location to see the next 7 days of passes ≥ 10°. The values pass through the URL so the page stays shareable.

No JS? Fill the form by hand. The geolocation button needs JavaScript.